sat.trackr.live / text

‹ back to catalog

STARLINK-5009

NORAD 53928 · 2022-119AU

PAYLOAD ACTIVE UNKNOWN

§ Identity

Operator
Country
US
Launch date
2022-09-24
Launch site
AFETR
Launch vehicle
Mass (kg)
RCS (m²)

Purposes: comms

External: N2YO · Heavens-Above · Gunter

§ Orbital elements

Epoch: 2026-09-19T22:51:10.676160Z

Period
95.44 min
Inclination
53.1603°
Eccentricity
0.0001094
Mean motion
15.08822030 rev/d
Perigee alt
539.0 km
Apogee alt
540.6 km
Semi-major
6,917.9 km
B*
5.7717e-5
RAAN
151.2848°
Arg perigee
95.2696°
Mean anomaly
264.8420°
Rev number
22,129

§ Raw data

STARLINK-50091 53928U 22119AU  26262.95220690  .00000630  00000+0  57717-4 0  99922 53928  53.1603 151.2848 0001094  95.2696 264.8420 15.08822030221298

JSON: /api/v1/satellites/53928 · /tle

For live sub-satellite position, see the globe view (requires WebGL).

§ Visibility from observer

Set your observer location to see the next 7 days of passes ≥ 10°. The values pass through the URL so the page stays shareable.

No JS? Fill the form by hand. The geolocation button needs JavaScript.